Location: ????????
(55.4000°N, 39.1167°E)
Time: 09:49:19
(UTC+00:00)

PSLV R/B - Pass Details

Date: 19 May 2025
Orbit: 586 x 683 km, 97.9° (Epoch: 12 June)

Event Time Altitude Azimuth Distance (km) Brightness Sun altitude
Rises 21:00:49 0° 16° (NNE) 2,858 8.4 -14.5°
Reaches altitude 10° 21:03:02 10° 20° (NNE) 1,942 7.2 -14.5°
Maximum altitude 21:07:12 63° 102° (ESE) 661 3.6 -14.6°
Enters shadow 21:09:27 26° 177° (S) 1,186 4.4 -14.6°
